This is the latest recevied weather packets stored in our database for station/object KC5DAQ-22. If no packets are shown the sender has not sent any weather packets the latest 10 day(s).
| Time | Temp. | Humidity | Pressure | Rain* | Wind** | Luminosity | Snow |
|---|---|---|---|---|---|---|---|
| 1778016785 | 29.44° C | 75% | 1005.3 hPa | 0 mm | - | 218 W/m² | - |
| 1778016723 | 29.44° C | 75% | 1005.3 hPa | 0 mm | - | 260 W/m² | - |
| 1778016662 | 29.44° C | 75% | 1005.3 hPa | 0 mm | - | 387 W/m² | - |
| 1778016602 | 29.44° C | 75% | 1005.2 hPa | 0 mm | - | 334 W/m² | - |
| 1778016544 | 29.44° C | 76% | 1005.3 hPa | 0 mm | - | 329 W/m² | - |
| 1778016483 | 29.44° C | 75% | 1005.3 hPa | 0 mm | - | 355 W/m² | - |
| 1778016423 | 29.44° C | 76% | 1005.3 hPa | 0 mm | - | 410 W/m² | - |
| 1778016363 | 28.89° C | 75% | 1005.3 hPa | 0 mm | - | 375 W/m² | - |
| 1778016302 | 28.89° C | 75% | 1005.4 hPa | 0 mm | - | 339 W/m² | - |
| 1778016242 | 28.89° C | 75% | 1005.4 hPa | 0 mm | - | 353 W/m² | - |
| 1778016184 | 28.89° C | 76% | 1005.4 hPa | 0 mm | - | 353 W/m² | - |
| 1778016122 | 28.89° C | 76% | 1005.5 hPa | 0 mm | - | 361 W/m² | - |
| 1778016062 | 28.89° C | 76% | 1005.5 hPa | 0 mm | - | 455 W/m² | - |
| 1778016003 | 28.89° C | 76% | 1005.5 hPa | 0 mm | - | 512 W/m² | - |
| 1778015945 | 28.89° C | 76% | 1005.6 hPa | 0 mm | - | 466 W/m² | - |
| 1778015883 | 28.89° C | 76% | 1005.6 hPa | 0 mm | - | 447 W/m² | - |
| 1778015822 | 28.89° C | 76% | 1005.5 hPa | 0 mm | - | 336 W/m² | - |
| 1778015764 | 28.89° C | 76% | 1005.5 hPa | 0 mm | - | 294 W/m² | - |
| 1778015703 | 28.89° C | 76% | 1005.5 hPa | 0 mm | - | 290 W/m² | - |
| 1778015642 | 28.89° C | 76% | 1005.4 hPa | 0 mm | - | 292 W/m² | - |
| 1778015582 | 28.89° C | 76% | 1005.6 hPa | 0 mm | - | 280 W/m² | - |
| 1778015523 | 28.89° C | 77% | 1005.6 hPa | 0 mm | - | 287 W/m² | - |
| 1778015464 | 28.89° C | 77% | 1005.6 hPa | 0 mm | - | 287 W/m² | - |
| 1778015405 | 28.89° C | 77% | 1005.6 hPa | 0 mm | - | 290 W/m² | - |
| 1778015344 | 28.89° C | 78% | 1005.7 hPa | 0 mm | - | 302 W/m² | - |
* Rain latest hour (hover to see other rain measurements)
** Current wind speed in m/s (hover to see current wind gust speed)